PROBA-1 1 26958U 01049B 26037.88063911 .00003467 00000+0 22926-3 0 9991 2 26958 97.9624 41.9074 0055013 202.1994 157.6850 15.06857176323999 CUTE-1 (CO-55) 1 27844U 03031E 26037.58262467 .00000483 00000+0 22815-3 0 9995 2 27844 98.6775 47.7702 0009212 198.7872 161.2968 14.24239444173081 CUBESAT XI-IV (CO-57) 1 27848U 03031J 26037.57641855 .00000402 00000+0 19568-3 0 9992 2 27848 98.6804 47.5817 0008777 217.9192 142.1369 14.23538553172799 APRIZESAT 4 1 35684U 09041D 26037.76695258 .00001232 00000+0 15380-3 0 9993 2 35684 98.1550 110.4434 0043987 26.1403 334.2017 14.83645825892027 APRIZESAT 3 1 35686U 09041F 26037.33808500 .00003582 00000+0 31461-3 0 9992 2 35686 98.1836 184.4892 0063104 138.4716 222.1323 14.95745587896817 PROBA-2 1 36037U 09059B 26037.42546818 .00000443 00000+0 11378-3 0 9991 2 36037 98.2402 222.5992 0012528 329.1188 30.9271 14.54767175862518 APRIZESAT 5 1 37792U 11044E 26037.74036801 .00001865 00000+0 24369-3 0 9991 2 37792 98.2389 327.1744 0053823 63.3967 297.2744 14.80753634779483 APRIZESAT 6 1 37793U 11044F 26037.71888047 .00001199 00000+0 17665-3 0 9997 2 37793 98.2442 305.5259 0044037 141.9360 273.1475 14.76686348777891 PROBA-V 1 39159U 13021A 26037.52871831 .00000119 00000+0 70439-4 0 9994 2 39159 98.3459 22.6762 0004776 142.2692 217.8823 14.23565362662521 APRIZESAT 7 1 39416U 13066A 26037.85898282 .00002298 00000+0 23473-3 0 9999 2 39416 97.7549 353.1138 0034546 284.1629 75.5752 14.91167169661801 APRIZESAT 8 1 39425U 13066K 26037.84314057 .00002152 00000+0 24006-3 0 9993 2 39425 97.8075 347.2774 0046170 356.8696 3.2224 14.87317678660294 BUGSAT-1 (TITA) 1 40014U 14033E 26037.84536081 .00007680 00000+0 42196-3 0 9998 2 40014 98.0469 122.9179 0027905 265.5645 94.2397 15.14086973636108 SAUDISAT 4 1 40016U 14033G 26037.38158330 .00001439 00000+0 19674-3 0 9997 2 40016 97.7353 188.2124 0045898 137.8954 222.5799 14.79321723626733 APRIZESAT 9 1 40018U 14033J 26037.33873409 .00001231 00000+0 18897-3 0 9991 2 40018 97.8833 173.9168 0065089 260.8599 98.5242 14.74000122624288 APRIZESAT 10 1 40019U 14033K 26037.84730243 .00000825 00000+0 13744-3 0 9990 2 40019 97.9439 167.8877 0078353 330.8996 28.7855 14.70699800623094 TECHDEMOSAT-1 (TDS-1) 1 40076U 14037H 26037.86830569 .00013806 00000+0 83297-3 0 9994 2 40076 98.3742 17.4713 0006633 7.6234 352.5093 15.10857879628537 TECHNOSAT 1 42829U 17042E 26036.96146433 .00006002 00000+0 43729-3 0 9997 2 42829 97.4098 199.8241 0018025 176.4802 183.6554 15.03978372466971 FLYING LAPTOP 1 42831U 17042G 26037.90027135 .00006308 00000+0 50630-3 0 9990 2 42831 97.4219 198.9620 0015591 201.7258 158.3306 15.00306587466910 HAWK-A 1 43765U 18099H 26037.72993248 .00009503 00000+0 40290-3 0 9998 2 43765 97.4118 91.7104 0036974 26.6525 333.6602 15.22707399393232 HAWK-B 1 43794U 18099AN 26037.66778311 .00008957 00000+0 39998-3 0 9990 2 43794 97.4167 91.3226 0034348 43.4612 316.9322 15.21049118393180 HAWK-C 1 43799U 18099AT 26037.65849987 .00011046 00000+0 42346-3 0 9996 2 43799 97.4095 91.9456 0043302 28.9149 331.4474 15.25788017393990 SALSAT 1 46495U 20068K 26037.56368961 .00011530 00000+0 43021-3 0 9998 2 46495 97.8835 32.9107 0011714 48.2805 311.9433 15.27522863295408 HAWK-2C 1 47502U 21006CT 26037.67132906 .00010203 00000+0 32457-3 0 9998 2 47502 97.2475 84.6192 0005896 320.2424 39.8385 15.32769873279497 HAWK-2A 1 47505U 21006CW 26037.67484264 .00012358 00000+0 39233-3 0 9990 2 47505 97.2517 85.2233 0005545 324.8906 35.1970 15.32784811279494 HAWK-2B 1 47508U 21006CZ 26037.73689390 .00010241 00000+0 32578-3 0 9991 2 47508 97.2390 83.8354 0006047 320.7698 39.3106 15.32767603279504 HAWK-3B 1 48931U 21059BE 26037.50963859 .00041870 00000+0 53478-3 0 9994 2 48931 97.6708 222.8763 0006454 86.8606 273.3388 15.59130546257420 HAWK-3C 1 48948U 21059BX 26037.50943153 .00047996 00000+0 61203-3 0 9997 2 48948 97.6866 228.3093 0006975 87.7122 272.4932 15.59141131257428 HAWK-3A 1 48957U 21059CG 26037.50926536 .00043084 00000+0 55015-3 0 9991 2 48957 97.6800 225.6267 0006503 86.5694 273.6305 15.59131313257425 HAWK-5C 1 52754U 22057Y 26037.41304986 .00025732 00000+0 52669-3 0 9991 2 52754 97.6417 189.3182 0005044 177.6671 182.4602 15.46083738206106 HAWK-5B 1 52756U 22057AA 26037.21873163 .00025586 00000+0 52393-3 0 9990 2 52756 97.6400 187.4584 0005077 173.9464 186.1847 15.46072385206074 HAWK-5A 1 52757U 22057AB 26036.89486257 .00030138 00000+0 61661-3 0 9995 2 52757 97.6411 187.9481 0005534 176.6366 183.4921 15.46060862206022 HAWK-6B 1 55324U 23011A 26037.36749358 .00008240 00000+0 36705-3 0 9996 2 55324 40.5149 34.2815 0003494 217.0739 142.9829 15.21466851167903 HAWK-6C 1 55326U 23011C 26037.36687922 .00008428 00000+0 37521-3 0 9991 2 55326 40.4838 31.2343 0003312 206.1660 153.8982 15.21466201167914 HAWK-6A 1 55327U 23011D 26037.36689241 .00008367 00000+0 37259-3 0 9998 2 55327 40.4996 32.7999 0002951 209.5241 150.5401 15.21466106167917 HAWK-7A 1 56191U 23054P 26037.69058757 .00007824 00000+0 29041-3 0 9990 2 56191 97.2884 288.3044 0007569 196.4187 163.6808 15.27819573157119 HAWK-7B 1 56193U 23054R 26037.62497859 .00007933 00000+0 29406-3 0 9991 2 56193 97.2891 286.4536 0008403 202.0501 158.0378 15.27855467157107 HAWK-7C 1 56200U 23054Y 26037.62472514 .00006399 00000+0 23781-3 0 9996 2 56200 97.2877 287.2645 0007767 199.1710 160.9239 15.27853663157104